"Sample Date","Sample Time","Sample Value","Units","Flow Rate","Laser Status","Micron Size 0","Counts/Channel 0","Micron Size 1","Counts/Channel 1","Micron Size 2","Counts/Channel 2","Micron Size 3","Counts/Channel 3","Micron Size 4","Counts/Channel 4","Micron Size 5","Counts/Channel 5","Micron Size 6","Counts/Channel 6","Micron Size 7","Counts/Channel 7","Micron Size 8","Counts/Channel 8","Micron Size 9","Counts/Channel 9","Micron Size 10","Counts/Channel 10","Micron Size 11","Counts/Channel 11","Micron Size 12","Counts/Channel 12","Micron Size 13","Counts/Channel 13","Micron Size 14","Counts/Channel 14","Micron Size 15","Counts/Channel 15","Micron Size 16","Counts/Channel 16","Micron Size 17","Counts/Channel 17","Micron Size 18","Counts/Channel 18","Micron Size 19","Counts/Channel 19","Micron Size 20","Counts/Channel 20","Micron Size 21","Counts/Channel 21","Micron Size 22","Counts/Channel 22","Micron Size 23","Counts/Channel 23","Micron Size 24","Counts/Channel 24","Micron Size 25","Counts/Channel 25","Micron Size 26","Counts/Channel 26","Micron Size 27","Counts/Channel 27","Micron Size 28","Counts/Channel 28","Micron Size 29","Counts/Channel 29","Micron Size 30","Counts/Channel 30","Micron Size 31","Counts/Channel 31"
"03/01/08","23:00:04",17049.000,"cc",28388.924,1,0.100,14591.000,0.200,805.000,0.300,604.000,0.500,755.000,1.000,294.000,5.000,0
"03/01/08","23:00:10",17214.000,"cc",28280.443,1,0.100,14646.000,0.200,836.000,0.300,642.000,0.500,735.000,1.000,355.000,5.000,0
"03/01/08","23:00:16",17396.000,"cc",28287.408,1,0.100,14781.000,0.200,838.000,0.300,661.000,0.500,784.000,1.000,332.000,5.000,0
"03/01/08","23:00:22",17622.000,"cc",28342.117,1,0.100,15032.000,0.200,859.000,0.300,638.000,0.500,747.000,1.000,346.000,5.000,0
"03/01/08","23:00:28",17641.000,"cc",28323.076,1,0.100,15037.000,0.200,827.000,0.300,656.000,0.500,799.000,1.000,322.000,5.000,0
"03/01/08","23:00:34",17616.000,"cc",28254.383,1,0.100,14999.000,0.200,892.000,0.300,645.000,0.500,766.000,1.000,314.000,5.000,0
"03/01/08","23:00:40",17298.000,"cc",28312.572,1,0.100,14720.000,0.200,862.000,0.300,658.000,0.500,757.000,1.000,301.000,5.000,0
"03/01/08","23:00:46",17609.000,"cc",28368.834,1,0.100,14976.000,0.200,873.000,0.300,659.000,0.500,765.000,1.000,336.000,5.000,0
"03/01/08","23:00:52",17229.000,"cc",28282.926,1,0.100,14731.000,0.200,821.000,0.300,673.000,0.500,674.000,1.000,330.000,5.000,0
"03/01/08","23:00:58",17304.000,"cc",28295.414,1,0.100,14714.000,0.200,916.000,0.300,638.000,0.500,706.000,1.000,330.000,5.000,0
"03/01/08","23:01:04",17503.000,"cc",28385.553,1,0.100,14887.000,0.200,877.000,0.300,633.000,0.500,755.000,1.000,351.000,5.000,0
"03/01/08","23:01:10",17460.000,"cc",28228.356,1,0.100,14862.000,0.200,898.000,0.300,688.000,0.500,672.000,1.000,340.000,5.000,0
"03/01/08","23:01:16",17307.000,"cc",28279.305,1,0.100,14728.000,0.200,874.000,0.300,664.000,0.500,735.000,1.000,306.000,5.000,0
"03/01/08","23:01:22",17604.000,"cc",28389.150,1,0.100,14998.000,0.200,873.000,0.300,681.000,0.500,747.000,1.000,305.000,5.000,0
"03/01/08","23:01:28",17577.000,"cc",28292.682,1,0.100,14918.000,0.200,843.000,0.300,707.000,0.500,796.000,1.000,313.000,5.000,0
"03/01/08","23:01:34",17524.000,"cc",28383.158,1,0.100,14848.000,0.200,857.000,0.300,682.000,0.500,816.000,1.000,320.000,5.000,1.000
"03/01/08","23:01:40",17521.000,"cc",28300.717,1,0.100,14956.000,0.200,841.000,0.300,682.000,0.500,717.000,1.000,325.000,5.000,0
"03/01/08","23:01:46",17471.000,"cc",28243.924,1,0.100,14947.000,0.200,823.000,0.300,634.000,0.500,756.000,1.000,311.000,5.000,0
"03/01/08","23:01:52",17493.000,"cc",28288.178,1,0.100,14887.000,0.200,877.000,0.300,669.000,0.500,728.000,1.000,332.000,5.000,0
"03/01/08","23:01:58",17433.000,"cc",28341.500,1,0.100,14906.000,0.200,815.000,0.300,638.000,0.500,750.000,1.000,324.000,5.000,0
"03/01/08","23:02:04",17570.000,"cc",28351.660,1,0.100,15070.000,0.200,825.000,0.300,612.000,0.500,750.000,1.000,313.000,5.000,0
"03/01/08","23:02:10",17613.000,"cc",28369.285,1,0.100,14955.000,0.200,883.000,0.300,661.000,0.500,784.000,1.000,330.000,5.000,0
"03/01/08","23:02:16",17594.000,"cc",28300.229,1,0.100,14929.000,0.200,911.000,0.300,678.000,0.500,759.000,1.000,317.000,5.000,0
"03/01/08","23:02:22",17434.000,"cc",28321.000,1,0.100,14834.000,0.200,859.000,0.300,645.000,0.500,768.000,1.000,328.000,5.000,0
"03/01/08","23:02:28",17664.000,"cc",28229.125,1,0.100,15038.000,0.200,877.000,0.300,633.000,0.500,775.000,1.000,341.000,5.000,0
"03/01/08","23:02:34",17504.000,"cc",28263.971,1,0.100,15003.000,0.200,809.000,0.300,654.000,0.500,701.000,1.000,337.000,5.000,0
"03/01/08","23:02:40",17837.000,"cc",28359.266,1,0.100,15227.000,0.200,861.000,0.300,619.000,0.500,776.000,1.000,354.000,5.000,0
"03/01/08","23:02:46",17689.000,"cc",28380.311,1,0.100,15133.000,0.200,866.000,0.300,630.000,0.500,716.000,1.000,344.000,5.000,0
"03/01/08","23:02:52",17770.000,"cc",28364.160,1,0.100,15120.000,0.200,879.000,0.300,691.000,0.500,767.000,1.000,313.000,5.000,0
"03/01/08","23:02:58",17527.000,"cc",28251.479,1,0.100,14931.000,0.200,867.000,0.300,655.000,0.500,746.000,1.000,328.000,5.000,0
"03/01/08","23:03:04",17521.000,"cc",28334.828,1,0.100,14879.000,0.200,893.000,0.300,678.000,0.500,733.000,1.000,338.000,5.000,0
"03/01/08","23:03:10",17688.000,"cc",28332.000,1,0.100,15044.000,0.200,876.000,0.300,700.000,0.500,769.000,1.000,299.000,5.000,0
"03/01/08","23:03:16",17490.000,"cc",28288.932,1,0.100,14955.000,0.200,829.000,0.300,639.000,0.500,726.000,1.000,341.000,5.000,0
"03/01/08","23:03:22",17666.000,"cc",28376.879,1,0.100,15080.000,0.200,865.000,0.300,623.000,0.500,776.000,1.000,322.000,5.000,0
"03/01/08","23:03:28",17772.000,"cc",28276.246,1,0.100,15186.000,0.200,854.000,0.300,633.000,0.500,760.000,1.000,339.000,5.000,0
"03/01/08","23:03:34",17642.000,"cc",28344.092,1,0.100,15070.000,0.200,863.000,0.300,659.000,0.500,745.000,1.000,304.000,5.000,1.000
"03/01/08","23:03:40",17576.000,"cc",28274.801,1,0.100,15007.000,0.200,825.000,0.300,638.000,0.500,766.000,1.000,340.000,5.000,0
"03/01/08","23:03:46",17697.000,"cc",28327.201,1,0.100,15135.000,0.200,853.000,0.300,664.000,0.500,717.000,1.000,328.000,5.000,0
"03/01/08","23:03:52",17837.000,"cc",28217.666,1,0.100,15290.000,0.200,897.000,0.300,628.000,0.500,716.000,1.000,306.000,5.000,0
"03/01/08","23:03:58",17997.000,"cc",28336.020,1,0.100,15322.000,0.200,904.000,0.300,680.000,0.500,771.000,1.000,320.000,5.000,0
"03/01/08","23:04:04",17847.000,"cc",28346.367,1,0.100,15186.000,0.200,893.000,0.300,653.000,0.500,778.000,1.000,337.000,5.000,0
"03/01/08","23:04:10",17846.000,"cc",28331.609,1,0.100,15217.000,0.200,939.000,0.300,641.000,0.500,726.000,1.000,323.000,5.000,0
"03/01/08","23:04:16",17552.000,"cc",28312.432,1,0.100,15107.000,0.200,827.000,0.300,573.000,0.500,725.000,1.000,320.000,5.000,0
"03/01/08","23:04:22",17668.000,"cc",28389.137,1,0.100,15105.000,0.200,845.000,0.300,688.000,0.500,727.000,1.000,303.000,5.000,0
"03/01/08","23:04:28",17700.000,"cc",28238.607,1,0.100,15177.000,0.200,851.000,0.300,664.000,0.500,692.000,1.000,316.000,5.000,0
"03/01/08","23:04:34",17683.000,"cc",28311.504,1,0.100,15178.000,0.200,816.000,0.300,650.000,0.500,706.000,1.000,333.000,5.000,0
"03/01/08","23:04:40",17617.000,"cc",28361.186,1,0.100,15101.000,0.200,808.000,0.300,647.000,0.500,774.000,1.000,287.000,5.000,0
"03/01/08","23:04:46",17974.000,"cc",28307.967,1,0.100,15355.000,0.200,879.000,0.300,675.000,0.500,739.000,1.000,326.000,5.000,0
"03/01/08","23:04:52",17795.000,"cc",28285.293,1,0.100,15010.000,0.200,950.000,0.300,758.000,0.500,723.000,1.000,354.000,5.000,0
"03/01/08","23:04:58",17688.000,"cc",28339.422,1,0.100,15115.000,0.200,873.000,0.300,659.000,0.500,727.000,1.000,314.000,5.000,0
"03/01/08","23:05:04",17626.000,"cc",28355.918,1,0.100,14943.000,0.200,892.000,0.300,652.000,0.500,794.000,1.000,345.000,5.000,0
"03/01/08","23:05:10",17989.000,"cc",28337.584,1,0.100,15310.000,0.200,908.000,0.300,682.000,0.500,774.000,1.000,314.000,5.000,1.000
"03/01/08","23:05:16",17658.000,"cc",28317.494,1,0.100,15034.000,0.200,879.000,0.300,681.000,0.500,742.000,1.000,322.000,5.000,0
"03/01/08","23:05:22",17721.000,"cc",28286.729,1,0.100,15155.000,0.200,864.000,0.300,640.000,0.500,756.000,1.000,306.000,5.000,0
"03/01/08","23:05:28",17578.000,"cc",28343.287,1,0.100,15038.000,0.200,829.000,0.300,665.000,0.500,717.000,1.000,329.000,5.000,0
"03/01/08","23:05:34",17700.000,"cc",28319.705,1,0.100,15096.000,0.200,896.000,0.300,644.000,0.500,772.000,1.000,292.000,5.000,0
"03/01/08","23:05:40",17685.000,"cc",28287.633,1,0.100,15155.000,0.200,854.000,0.300,659.000,0.500,718.000,1.000,299.000,5.000,0
"03/01/08","23:05:46",17763.000,"cc",28319.785,1,0.100,15175.000,0.200,879.000,0.300,614.000,0.500,754.000,1.000,341.000,5.000,0
"03/01/08","23:05:52",17578.000,"cc",28308.924,1,0.100,15093.000,0.200,853.000,0.300,641.000,0.500,723.000,1.000,268.000,5.000,0
"03/01/08","23:05:58",17932.000,"cc",28346.338,1,0.100,15318.000,0.200,897.000,0.300,625.000,0.500,792.000,1.000,300.000,5.000,0
"03/01/08","23:06:04",17927.000,"cc",28371.914,1,0.100,15399.000,0.200,836.000,0.300,613.000,0.500,770.000,1.000,309.000,5.000,0
"03/01/08","23:06:10",17817.000,"cc",28287.842,1,0.100,15210.000,0.200,846.000,0.300,667.000,0.500,804.000,1.000,290.000,5.000,0
"03/01/08","23:06:16",17791.000,"cc",28256.090,1,0.100,15173.000,0.200,890.000,0.300,618.000,0.500,778.000,1.000,332.000,5.000,0
"03/01/08","23:06:22",18090.000,"cc",28306.445,1,0.100,15542.000,0.200,824.000,0.300,676.000,0.500,744.000,1.000,304.000,5.000,0
"03/01/08","23:06:28",17885.000,"cc",28195.496,1,0.100,15371.000,0.200,868.000,0.300,630.000,0.500,690.000,1.000,326.000,5.000,0
"03/01/08","23:06:34",17990.000,"cc",28347.789,1,0.100,15313.000,0.200,868.000,0.300,690.000,0.500,792.000,1.000,327.000,5.000,0
"03/01/08","23:06:40",17812.000,"cc",28400.258,1,0.100,15280.000,0.200,834.000,0.300,654.000,0.500,709.000,1.000,335.000,5.000,0
"03/01/08","23:06:46",18046.000,"cc",28287.654,1,0.100,15438.000,0.200,891.000,0.300,624.000,0.500,737.000,1.000,356.000,5.000,0
"03/01/08","23:06:52",18266.000,"cc",28334.588,1,0.100,15584.000,0.200,884.000,0.300,683.000,0.500,770.000,1.000,345.000,5.000,0
"03/01/08","23:06:58",18214.000,"cc",28350.885,1,0.100,15716.000,0.200,838.000,0.300,611.000,0.500,745.000,1.000,304.000,5.000,0
"03/01/08","23:07:04",18147.000,"cc",28331.824,1,0.100,15627.000,0.200,890.000,0.300,637.000,0.500,681.000,1.000,312.000,5.000,0
"03/01/08","23:07:10",17830.000,"cc",28338.856,1,0.100,15302.000,0.200,879.000,0.300,634.000,0.500,716.000,1.000,299.000,5.000,0
"03/01/08","23:07:16",18094.000,"cc",28297.947,1,0.100,15482.000,0.200,875.000,0.300,662.000,0.500,743.000,1.000,332.000,5.000,0
"03/01/08","23:07:22",17854.000,"cc",28296.250,1,0.100,15353.000,0.200,827.000,0.300,683.000,0.500,738.000,1.000,253.000,5.000,0
"03/01/08","23:07:28",17859.000,"cc",28364.850,1,0.100,15348.000,0.200,822.000,0.300,631.000,0.500,747.000,1.000,311.000,5.000,0
"03/01/08","23:07:34",17962.000,"cc",28359.281,1,0.100,15415.000,0.200,861.000,0.300,623.000,0.500,723.000,1.000,340.000,5.000,0
"03/01/08","23:07:40",17698.000,"cc",28277.623,1,0.100,15172.000,0.200,853.000,0.300,615.000,0.500,764.000,1.000,294.000,5.000,0
"03/01/08","23:07:46",18012.000,"cc",28269.008,1,0.100,15388.000,0.200,905.000,0.300,686.000,0.500,717.000,1.000,316.000,5.000,0
"03/01/08","23:07:52",17759.000,"cc",28356.801,1,0.100,15283.000,0.200,839.000,0.300,636.000,0.500,682.000,1.000,319.000,5.000,0
"03/01/08","23:07:58",18042.000,"cc",28324.100,1,0.100,15438.000,0.200,820.000,0.300,677.000,0.500,796.000,1.000,311.000,5.000,0
"03/01/08","23:08:04",17977.000,"cc",28319.479,1,0.100,15436.000,0.200,847.000,0.300,622.000,0.500,753.000,1.000,319.000,5.000,0
"03/01/08","23:08:10",17849.000,"cc",28360.049,1,0.100,15285.000,0.200,867.000,0.300,685.000,0.500,722.000,1.000,290.000,5.000,0
"03/01/08","23:08:16",17828.000,"cc",28281.305,1,0.100,15337.000,0.200,843.000,0.300,590.000,0.500,752.000,1.000,306.000,5.000,0
"03/01/08","23:08:22",18070.000,"cc",28304.871,1,0.100,15524.000,0.200,853.000,0.300,641.000,0.500,753.000,1.000,299.000,5.000,0
"03/01/08","23:08:28",17850.000,"cc",28365.867,1,0.100,15407.000,0.200,812.000,0.300,633.000,0.500,690.000,1.000,308.000,5.000,0
"03/01/08","23:08:34",17930.000,"cc",28325.846,1,0.100,15402.000,0.200,842.000,0.300,633.000,0.500,729.000,1.000,324.000,5.000,0
"03/01/08","23:08:40",17916.000,"cc",28270.816,1,0.100,15360.000,0.200,857.000,0.300,626.000,0.500,748.000,1.000,325.000,5.000,0
"03/01/08","23:08:46",18004.000,"cc",28268.902,1,0.100,15516.000,0.200,868.000,0.300,628.000,0.500,697.000,1.000,295.000,5.000,0
"03/01/08","23:08:52",17676.000,"cc",28299.334,1,0.100,15146.000,0.200,847.000,0.300,633.000,0.500,748.000,1.000,302.000,5.000,0
"03/01/08","23:08:58",17874.000,"cc",28370.981,1,0.100,15382.000,0.200,860.000,0.300,627.000,0.500,729.000,1.000,276.000,5.000,0
"03/01/08","23:09:04",18051.000,"cc",28328.803,1,0.100,15533.000,0.200,836.000,0.300,637.000,0.500,719.000,1.000,326.000,5.000,0
"03/01/08","23:09:10",17983.000,"cc",28363.553,1,0.100,15395.000,0.200,874.000,0.300,614.000,0.500,783.000,1.000,317.000,5.000,0
"03/01/08","23:09:16",17726.000,"cc",28285.397,1,0.100,15205.000,0.200,816.000,0.300,630.000,0.500,760.000,1.000,315.000,5.000,0
"03/01/08","23:09:22",18031.000,"cc",28275.137,1,0.100,15515.000,0.200,890.000,0.300,601.000,0.500,721.000,1.000,304.000,5.000,0
"03/01/08","23:09:28",17990.000,"cc",28303.691,1,0.100,15504.000,0.200,850.000,0.300,639.000,0.500,714.000,1.000,283.000,5.000,0
"03/01/08","23:09:34",18281.000,"cc",28349.594,1,0.100,15759.000,0.200,787.000,0.300,659.000,0.500,770.000,1.000,306.000,5.000,0
"03/01/08","23:09:40",18115.000,"cc",28319.266,1,0.100,15546.000,0.200,854.000,0.300,608.000,0.500,780.000,1.000,327.000,5.000,0
"03/01/08","23:09:46",18078.000,"cc",28348.004,1,0.100,15610.000,0.200,841.000,0.300,650.000,0.500,672.000,1.000,305.000,5.000,0
"03/01/08","23:09:52",17929.000,"cc",28348.746,1,0.100,15413.000,0.200,858.000,0.300,645.000,0.500,717.000,1.000,296.000,5.000,0
"03/01/08","23:09:58",17811.000,"cc",28341.523,1,0.100,15365.000,0.200,868.000,0.300,575.000,0.500,693.000,1.000,310.000,5.000,0
"03/01/08","23:10:04",18283.000,"cc",28265.654,1,0.100,15693.000,0.200,897.000,0.300,648.000,0.500,740.000,1.000,305.000,5.000,0
"03/01/08","23:10:10",18132.000,"cc",28353.965,1,0.100,15596.000,0.200,857.000,0.300,602.000,0.500,736.000,1.000,341.000,5.000,0
"03/01/08","23:10:16",18430.000,"cc",28274.625,1,0.100,15773.000,0.200,919.000,0.300,677.000,0.500,745.000,1.000,316.000,5.000,0
"03/01/08","23:10:22",18032.000,"cc",28360.279,1,0.100,15429.000,0.200,887.000,0.300,645.000,0.500,759.000,1.000,312.000,5.000,0
"03/01/08","23:10:28",18090.000,"cc",28376.436,1,0.100,15517.000,0.200,919.000,0.300,619.000,0.500,735.000,1.000,300.000,5.000,0
"03/01/08","23:10:34",18124.000,"cc",28308.891,1,0.100,15664.000,0.200,801.000,0.300,631.000,0.500,705.000,1.000,323.000,5.000,0
"03/01/08","23:10:40",18071.000,"cc",28291.201,1,0.100,15489.000,0.200,888.000,0.300,669.000,0.500,725.000,1.000,300.000,5.000,0
"03/01/08","23:10:46",17894.000,"cc",28271.377,1,0.100,15448.000,0.200,847.000,0.300,598.000,0.500,688.000,1.000,313.000,5.000,0
"03/01/08","23:10:52",18413.000,"cc",28280.895,1,0.100,15922.000,0.200,875.000,0.300,594.000,0.500,690.000,1.000,332.000,5.000,0
"03/01/08","23:10:58",18207.000,"cc",28325.379,1,0.100,15778.000,0.200,871.000,0.300,585.000,0.500,673.000,1.000,300.000,5.000,0
"03/01/08","23:11:04",18236.000,"cc",28239.783,1,0.100,15695.000,0.200,873.000,0.300,655.000,0.500,690.000,1.000,323.000,5.000,0
"03/01/08","23:11:10",18428.000,"cc",28349.672,1,0.100,15858.000,0.200,935.000,0.300,606.000,0.500,721.000,1.000,308.000,5.000,0
"03/01/08","23:11:16",18398.000,"cc",28384.262,1,0.100,15932.000,0.200,857.000,0.300,587.000,0.500,710.000,1.000,312.000,5.000,0
"03/01/08","23:11:22",18311.000,"cc",28347.322,1,0.100,15780.000,0.200,851.000,0.300,640.000,0.500,698.000,1.000,342.000,5.000,0
"03/01/08","23:11:28",18400.000,"cc",28326.754,1,0.100,15888.000,0.200,884.000,0.300,588.000,0.500,734.000,1.000,306.000,5.000,0
"03/01/08","23:11:34",18537.000,"cc",28301.289,1,0.100,15938.000,0.200,859.000,0.300,639.000,0.500,774.000,1.000,327.000,5.000,0
"03/01/08","23:11:40",18449.000,"cc",28304.029,1,0.100,15960.000,0.200,822.000,0.300,623.000,0.500,726.000,1.000,318.000,5.000,0
"03/01/08","23:11:46",18355.000,"cc",28316.557,1,0.100,15899.000,0.200,836.000,0.300,627.000,0.500,707.000,1.000,286.000,5.000,0
"03/01/08","23:11:52",18128.000,"cc",28301.518,1,0.100,15616.000,0.200,934.000,0.300,578.000,0.500,707.000,1.000,293.000,5.000,0
"03/01/08","23:11:58",18775.000,"cc",28307.494,1,0.100,16227.000,0.200,874.000,0.300,627.000,0.500,728.000,1.000,319.000,5.000,0
"03/01/08","23:12:04",18480.000,"cc",28377.867,1,0.100,15885.000,0.200,876.000,0.300,639.000,0.500,764.000,1.000,316.000,5.000,0
"03/01/08","23:12:10",18473.000,"cc",28236.352,1,0.100,16006.000,0.200,819.000,0.300,641.000,0.500,711.000,1.000,296.000,5.000,0
"03/01/08","23:12:16",18703.000,"cc",28294.617,1,0.100,16137.000,0.200,869.000,0.300,625.000,0.500,761.000,1.000,311.000,5.000,0
"03/01/08","23:12:22",18560.000,"cc",28391.775,1,0.100,16049.000,0.200,875.000,0.300,593.000,0.500,737.000,1.000,306.000,5.000,0
"03/01/08","23:12:28",18414.000,"cc",28267.459,1,0.100,15887.000,0.200,892.000,0.300,634.000,0.500,698.000,1.000,303.000,5.000,0
"03/01/08","23:12:34",18520.000,"cc",28332.666,1,0.100,16017.000,0.200,907.000,0.300,596.000,0.500,669.000,1.000,331.000,5.000,0
"03/01/08","23:12:40",18641.000,"cc",28332.799,1,0.100,16136.000,0.200,874.000,0.300,618.000,0.500,705.000,1.000,308.000,5.000,0
"03/01/08","23:12:46",18640.000,"cc",28314.623,1,0.100,16097.000,0.200,890.000,0.300,611.000,0.500,716.000,1.000,326.000,5.000,0
"03/01/08","23:12:52",18440.000,"cc",28257.947,1,0.100,15944.000,0.200,834.000,0.300,635.000,0.500,704.000,1.000,323.000,5.000,0
"03/01/08","23:12:58",18329.000,"cc",28325.057,1,0.100,15792.000,0.200,859.000,0.300,596.000,0.500,761.000,1.000,321.000,5.000,0
"03/01/08","23:13:04",18844.000,"cc",28374.883,1,0.100,16186.000,0.200,904.000,0.300,661.000,0.500,776.000,1.000,317.000,5.000,0
"03/01/08","23:13:10",18513.000,"cc",28298.707,1,0.100,15926.000,0.200,889.000,0.300,625.000,0.500,721.000,1.000,352.000,5.000,0
"03/01/08","23:13:16",18718.000,"cc",28306.502,1,0.100,16279.000,0.200,859.000,0.300,627.000,0.500,655.000,1.000,298.000,5.000,0
"03/01/08","23:13:22",18610.000,"cc",28280.479,1,0.100,16046.000,0.200,893.000,0.300,640.000,0.500,724.000,1.000,307.000,5.000,0
"03/01/08","23:13:28",18461.000,"cc",28372.910,1,0.100,16013.000,0.200,863.000,0.300,588.000,0.500,683.000,1.000,314.000,5.000,0
"03/01/08","23:13:34",18484.000,"cc",28333.004,1,0.100,15959.000,0.200,892.000,0.300,611.000,0.500,687.000,1.000,335.000,5.000,0
"03/01/08","23:13:40",18381.000,"cc",28323.336,1,0.100,15881.000,0.200,882.000,0.300,606.000,0.500,707.000,1.000,305.000,5.000,0
"03/01/08","23:13:46",18644.000,"cc",28295.916,1,0.100,16117.000,0.200,857.000,0.300,663.000,0.500,699.000,1.000,308.000,5.000,0
"03/01/08","23:13:52",18278.000,"cc",28301.539,1,0.100,15813.000,0.200,885.000,0.300,594.000,0.500,700.000,1.000,286.000,5.000,0
"03/01/08","23:13:58",18414.000,"cc",28285.633,1,0.100,15960.000,0.200,862.000,0.300,606.000,0.500,683.000,1.000,303.000,5.000,0
"03/01/08","23:14:04",18503.000,"cc",28376.586,1,0.100,15976.000,0.200,858.000,0.300,626.000,0.500,721.000,1.000,322.000,5.000,0
"03/01/08","23:14:10",18638.000,"cc",28285.420,1,0.100,16135.000,0.200,863.000,0.300,606.000,0.500,710.000,1.000,324.000,5.000,0
"03/01/08","23:14:16",18633.000,"cc",28313.363,1,0.100,16112.000,0.200,821.000,0.300,590.000,0.500,770.000,1.000,340.000,5.000,0
"03/01/08","23:14:22",18364.000,"cc",28312.537,1,0.100,15918.000,0.200,808.000,0.300,586.000,0.500,737.000,1.000,315.000,5.000,0
"03/01/08","23:14:28",18659.000,"cc",28355.299,1,0.100,16144.000,0.200,885.000,0.300,637.000,0.500,716.000,1.000,277.000,5.000,0
"03/01/08","23:14:34",18528.000,"cc",28350.766,1,0.100,16161.000,0.200,807.000,0.300,598.000,0.500,677.000,1.000,285.000,5.000,0
"03/01/08","23:14:40",18744.000,"cc",28247.506,1,0.100,16276.000,0.200,809.000,0.300,623.000,0.500,717.000,1.000,319.000,5.000,0
"03/01/08","23:14:46",18703.000,"cc",28314.898,1,0.100,16227.000,0.200,821.000,0.300,614.000,0.500,727.000,1.000,314.000,5.000,0
"03/01/08","23:14:52",18694.000,"cc",28264.945,1,0.100,16123.000,0.200,868.000,0.300,654.000,0.500,721.000,1.000,328.000,5.000,0
"03/01/08","23:14:58",18467.000,"cc",28326.588,1,0.100,16032.000,0.200,860.000,0.300,589.000,0.500,681.000,1.000,305.000,5.000,0
"03/01/08","23:15:04",18461.000,"cc",28376.639,1,0.100,15906.000,0.200,873.000,0.300,609.000,0.500,731.000,1.000,342.000,5.000,0
"03/01/08","23:15:10",18566.000,"cc",28368.707,1,0.100,16090.000,0.200,798.000,0.300,646.000,0.500,740.000,1.000,292.000,5.000,0
"03/01/08","23:15:16",18614.000,"cc",28257.018,1,0.100,16201.000,0.200,779.000,0.300,600.000,0.500,730.000,1.000,304.000,5.000,0
"03/01/08","23:15:22",18503.000,"cc",28357.916,1,0.100,16021.000,0.200,836.000,0.300,625.000,0.500,728.000,1.000,293.000,5.000,0
"03/01/08","23:15:28",18821.000,"cc",28340.346,1,0.100,16341.000,0.200,851.000,0.300,581.000,0.500,727.000,1.000,321.000,5.000,0
"03/01/08","23:15:34",18648.000,"cc",28283.666,1,0.100,16182.000,0.200,843.000,0.300,589.000,0.500,726.000,1.000,308.000,5.000,0
"03/01/08","23:15:40",18518.000,"cc",28295.830,1,0.100,16100.000,0.200,834.000,0.300,580.000,0.500,709.000,1.000,295.000,5.000,0
"03/01/08","23:15:46",18601.000,"cc",28278.934,1,0.100,16198.000,0.200,792.000,0.300,598.000,0.500,698.000,1.000,315.000,5.000,0
"03/01/08","23:15:52",18573.000,"cc",28361.334,1,0.100,16122.000,0.200,889.000,0.300,566.000,0.500,695.000,1.000,301.000,5.000,0
"03/01/08","23:15:58",18585.000,"cc",28287.156,1,0.100,16095.000,0.200,846.000,0.300,593.000,0.500,736.000,1.000,315.000,5.000,0
"03/01/08","23:16:04",18533.000,"cc",28335.068,1,0.100,16025.000,0.200,835.000,0.300,603.000,0.500,745.000,1.000,325.000,5.000,0
"03/01/08","23:16:10",18743.000,"cc",28380.844,1,0.100,16254.000,0.200,863.000,0.300,615.000,0.500,711.000,1.000,300.000,5.000,0
"03/01/08","23:16:16",18556.000,"cc",28318.129,1,0.100,16041.000,0.200,905.000,0.300,593.000,0.500,713.000,1.000,304.000,5.000,0
"03/01/08","23:16:22",18624.000,"cc",28300.459,1,0.100,16214.000,0.200,840.000,0.300,587.000,0.500,688.000,1.000,295.000,5.000,0
"03/01/08","23:16:28",18628.000,"cc",28280.699,1,0.100,16138.000,0.200,912.000,0.300,583.000,0.500,697.000,1.000,298.000,5.000,0
"03/01/08","23:16:34",18485.000,"cc",28322.246,1,0.100,16035.000,0.200,833.000,0.300,628.000,0.500,682.000,1.000,307.000,5.000,0
"03/01/08","23:16:40",18631.000,"cc",28352.408,1,0.100,16213.000,0.200,795.000,0.300,599.000,0.500,698.000,1.000,326.000,5.000,0
"03/01/08","23:16:46",18567.000,"cc",28267.498,1,0.100,16046.000,0.200,825.000,0.300,621.000,0.500,694.000,1.000,381.000,5.000,0
"03/01/08","23:16:52",18683.000,"cc",28303.805,1,0.100,16161.000,0.200,851.000,0.300,604.000,0.500,734.000,1.000,332.000,5.000,1.000
"03/01/08","23:16:58",18384.000,"cc",28305.277,1,0.100,15859.000,0.200,879.000,0.300,613.000,0.500,717.000,1.000,316.000,5.000,0
"03/01/08","23:17:04",18826.000,"cc",28352.070,1,0.100,16361.000,0.200,816.000,0.300,623.000,0.500,725.000,1.000,301.000,5.000,0
"03/01/08","23:17:10",18574.000,"cc",28362.236,1,0.100,16104.000,0.200,835.000,0.300,614.000,0.500,710.000,1.000,311.000,5.000,0
"03/01/08","23:17:16",18819.000,"cc",28332.967,1,0.100,16281.000,0.200,890.000,0.300,608.000,0.500,741.000,1.000,299.000,5.000,0
"03/01/08","23:17:22",18585.000,"cc",28280.316,1,0.100,16068.000,0.200,846.000,0.300,610.000,0.500,712.000,1.000,349.000,5.000,0